Wind_Speed
38 32 26 25 25 21 16 13 21 26 25 27 27 25 25 28 33 36 41 44 43 40 39 38 38 38 40 36 34 31 30 28 23 29 21 18 16 15 15 15 15 15 14
35 34 31 30 29 23 18 14 22 27 30 28 29 30 28 27 29 38 46 45 44 41 40 39 40 39 39 38 34 35 35 31 26 29 28 22 18 20 20 18 19 19 18
42 39 38 35 32 27 21 17 18 26 29 29 28 29 29 32 29 40 49 51 42 41 40 41 39 41 39 40 36 39 34 35 32 26 24 14 11 26 25 25 23 23 25
45 44 42 38 34 28 21 17 17 24 27 27 28 27 30 31 33 34 42 49 42 42 40 37 38 42 39 38 37 38 35 33 35 31 27 22 17 15 15 29 30 28 27
48 48 47 39 35 28 23 19 17 22 25 24 22 22 22 22 21 30 30 43 42 42 36 33 39 36 39 39 40 39 35 33 35 38 25 29 32 20 18 16 24 32 33
48 50 46 40 34 29 24 22 19 22 25 26 26 22 25 22 27 31 35 42 42 33 34 36 41 39 35 28 31 26 35 34 37 28 26 36 34 31 25 21 18 18 18
44 44 44 42 35 32 28 25 22 22 25 27 26 27 25 27 28 31 35 42 51 44 35 32 34 36 37 31 28 36 38 37 38 34 34 36 37 35 32 30 30 30 27
44 50 47 41 36 32 29 26 24 21 24 27 26 29 30 29 30 36 41 44 49 51 44 41 37 34 33 31 36 41 38 35 39 34 33 33 38 37 36 35 30 26 25
41 48 44 39 35 32 28 26 23 22 21 25 28 27 30 32 34 40 42 39 41 44 49 45 44 42 43 43 44 41 40 38 40 38 36 36 37 38 34 33 33 32 31
39 42 41 37 33 30 27 25 22 19 18 21 25 29 29 32 35 38 39 39 41 44 45 45 43 42 45 45 42 44 44 42 42 41 42 41 42 40 41 42 42 42 41
14 21 27 29 29 29 28 25 23 20 20 19 23 26 32 33 34 38 39 39 40 46 48 47 45 45 46 47 48 46 45 47 45 47 47 45 46 46 44 44 45 46 46
33 19 14 9 10 16 20 24 24 23 20 18 20 24 25 32 36 37 38 38 39 42 48 49 50 50 50 50 52 52 53 53 52 50 49 51 50 50 48 49 50 50 50
36 41 36 24 18 10 2 8 17 22 23 24 23 23 26 28 32 35 39 39 40 42 44 48 55 55 54 54 55 57 57 57 58 57 56 57 54 56 55 54 54 54 54
32 35 35 32 29 26 24 16 7 3 20 28 28 30 29 29 30 30 32 36 39 42 45 47 51 53 55 58 62 61 62 64 66 66 66 64 63 63 59 58 56 56 56
33 32 29 27 24 20 16 12 8 9 5 15 27 31 32 32 33 34 35 35 36 39 42 45 47 48 53 55 57 59 62 66 64 66 66 67 67 67 63 59 61 59 57
33 29 25 25 24 23 20 16 12 10 5 5 4 14 26 30 36 38 39 39 40 42 41 44 48 50 51 53 54 56 58 58 60 61 63 62 63 66 67 64 57 55 54
25 23 22 23 24 22 20 19 18 14 10 7 7 4 8 12 24 34 34 42 46 46 47 46 45 48 52 52 54 53 53 55 57 58 58 58 60 59 58 55 52 52 53
22 20 17 17 18 16 16 19 19 18 17 15 12 11 13 13 15 14 24 38 42 43 50 51 50 51 50 48 51 53 54 55 58 58 57 57 57 56 54 52 52 54 58
17 14 13 14 15 15 16 15 15 17 19 21 21 20 18 17 19 21 22 22 31 39 52 52 54 54 54 51 49 49 52 56 57 56 58 60 59 57 55 54 53 54 56
15 13 14 14 13 16 17 17 17 17 18 19 21 23 25 25 24 23 24 28 31 33 43 48 51 53 55 53 52 49 49 55 59 60 63 62 64 61 59 58 58 59 56
16 13 15 17 19 19 19 20 21 21 21 20 20 21 23 25 25 26 27 27 28 33 35 39 48 50 52 54 55 52 52 53 59 58 59 63 65 64 61 60 55 55 48
16 16 16 18 20 22 21 21 22 22 22 23 21 20 20 22 23 25 25 24 26 25 24 30 39 43 45 48 52 53 53 49 51 53 53 43 38 30 27 31 37 33 32
14 15 16 17 19 21 22 21 21 21 21 20 21 23 23 24 21 20 19 19 18 16 15 16 20 18 14 22 26 28 39 45 38 33 16 22 25 24 24 27 28 18 25
16 16 16 18 20 21 21 21 20 19 19 20 20 21 23 25 24 23 23 19 15 12 8 4 3 2 2 3 1 3 9 18 21 24 22 22 27 24 31 25 20 19 12
12 14 16 18 19 19 19 20 20 19 20 20 20 21 21 24 29 29 33 31 25 17 14 14 13 13 15 13 13 18 23 27 30 31 29 27 29 29 21 25 21 17 15
10 12 14 15 17 17 18 20 20 19 18 19 20 20 20 21 24 29 32 34 34 34 32 30 29 28 25 24 26 26 25 28 25 26 27 24 22 21 16 14 15 11 11
Wind_Direction
199 202 211 208 201 203 202 199 189 190 199 198 196 196 198 200 203 202 201 193 195 199 196 190 185 181 179 177 181 180 181 185 188 189 184 190 200 210 217 215 214 217 218
194 199 205 204 204 206 203 201 193 191 197 201 200 203 203 209 212 205 199 197 199 202 202 198 191 187 187 186 184 186 186 190 189 191 201 193 200 219 227 232 236 238 235
193 197 202 205 204 203 204 205 198 194 196 202 209 213 214 216 215 213 205 203 202 202 201 197 197 194 193 189 190 190 193 193 191 198 196 189 209 219 225 232 238 241 242
199 202 201 204 208 205 203 201 200 192 197 203 209 214 214 212 216 218 212 202 201 199 201 201 203 199 202 201 195 195 193 195 193 198 209 217 227 209 221 230 233 238 243
198 202 206 209 207 204 204 199 199 190 200 200 205 206 205 211 213 217 208 213 192 197 203 204 199 200 202 206 200 192 199 199 203 197 199 223 222 226 221 226 233 237 244
195 204 206 205 202 203 204 199 201 196 195 196 202 199 200 201 212 210 205 199 186 189 204 200 202 198 197 187 191 194 209 206 209 212 219 224 222 226 227 229 235 247 256
184 190 199 202 202 203 203 202 203 202 196 199 201 203 206 204 211 206 202 195 196 197 201 207 205 201 201 198 202 206 216 217 219 218 222 228 235 240 245 251 259 263 267
181 193 200 202 204 205 205 205 208 207 202 200 205 207 209 211 210 198 192 193 200 205 203 211 218 212 212 208 215 219 222 226 219 222 234 236 237 238 243 248 254 246 258
181 193 198 201 206 209 209 210 208 212 214 208 203 210 210 210 207 199 199 206 208 211 211 213 215 215 213 213 217 220 221 226 227 232 234 245 244 242 244 244 245 249 268
183 191 195 200 207 214 211 212 214 219 221 220 213 209 212 214 212 209 215 221 224 220 221 218 218 218 218 221 223 226 228 231 233 237 238 239 244 244 247 250 252 252 260
164 182 191 202 208 217 214 214 215 216 222 225 224 216 213 216 221 226 229 230 230 227 228 227 226 225 224 227 231 232 232 233 236 239 242 244 244 246 249 251 252 256 259
78 108 166 171 212 232 229 225 225 228 235 238 234 231 228 221 225 229 233 234 233 231 231 232 232 232 232 231 232 235 237 239 241 243 245 248 250 252 254 256 258 260 262
73 79 93 101 96 89 40 260 253 250 253 250 249 243 238 236 234 233 235 239 238 237 236 236 237 239 241 240 239 239 240 242 245 248 251 252 253 255 257 256 260 262 265
79 76 78 78 80 79 80 88 113 279 263 262 257 255 252 251 248 246 244 241 240 239 240 241 240 241 243 245 246 246 246 247 250 253 254 257 258 259 262 262 260 265 268
81 71 68 68 67 64 62 65 70 47 19 253 266 265 262 261 262 260 255 253 249 247 244 244 246 245 243 244 245 247 248 250 253 254 255 258 257 259 262 263 264 268 268
71 67 59 59 55 46 37 33 33 30 45 62 35 256 272 273 268 264 260 259 258 256 251 250 248 248 249 248 247 249 252 253 253 255 258 259 260 262 263 266 266 268 267
76 66 48 40 43 44 33 30 26 17 8 342 304 314 262 265 266 271 274 267 261 260 259 258 254 252 254 256 254 252 251 254 256 257 258 259 261 263 264 266 267 265 263
68 62 46 39 40 33 27 24 19 15 7 358 340 316 293 279 258 252 248 258 271 269 264 262 263 260 261 263 262 259 255 255 256 258 260 262 264 265 266 265 263 260 259
78 66 52 39 26 20 19 15 10 8 2 357 352 341 324 301 286 282 270 262 254 254 260 268 265 260 262 264 264 261 254 253 255 258 256 257 259 261 261 257 255 256 257
74 52 39 33 26 21 15 7 6 3 1 357 347 336 332 326 316 299 288 280 275 272 256 256 257 257 263 264 261 259 256 253 252 254 251 253 255 253 254 255 258 254 250
53 43 32 27 24 19 14 9 5 2 359 354 348 339 330 325 322 321 314 305 289 278 278 255 250 249 247 247 254 254 251 253 250 251 251 250 250 250 250 251 249 244 232
49 44 35 29 24 20 18 17 13 8 2 358 354 353 347 339 332 326 327 321 312 298 279 253 243 239 239 241 243 245 246 246 243 244 243 239 235 232 230 229 224 208 183
50 46 37 31 26 22 20 19 18 11 9 8 11 11 8 7 2 350 340 331 322 311 290 257 238 234 239 240 243 243 241 241 235 224 168 156 196 183 161 146 137 123 140
40 37 30 29 28 25 23 25 24 22 20 24 26 26 26 28 29 27 24 17 6 354 338 298 241 251 284 9 279 157 194 193 177 149 119 127 122 110 119 116 117 123 119
38 37 34 33 34 31 29 29 30 31 36 40 43 44 46 52 58 57 59 55 50 48 64 75 80 82 82 84 108 125 124 122 122 124 122 123 117 122 116 119 120 120 116
55 55 52 50 46 40 40 39 37 37 40 47 48 51 57 63 72 79 80 85 84 84 87 93 95 94 100 112 114 113 122 118 133 124 121 113 111 112 108 109 111 104 91
Height
1422 1428 1430 1433 1437 1439 1441 1443 1446 1451 1454 1457 1460 1465 1467 1472 1475 1478 1481 1485 1489 1495 1500 1504 1507 1511 1516 1520 1527 1531 1534 1540 1545 1550 1555 1556 1558 1559 1561 1563 1564 1566 1568
1420 1423 1426 1429 1432 1435 1438 1440 1442 1447 1451 1454 1458 1461 1464 1468 1471 1473 1476 1483 1487 1492 1497 1501 1504 1509 1514 1519 1523 1529 1532 1538 1542 1546 1552 1554 1556 1557 1558 1559 1560 1564 1566
1412 1416 1420 1423 1427 1431 1433 1436 1439 1444 1449 1453 1456 1459 1462 1463 1465 1468 1471 1478 1483 1490 1494 1498 1502 1507 1513 1516 1521 1527 1530 1534 1538 1544 1548 1550 1550 1553 1554 1554 1557 1559 1562
1404 1408 1414 1418 1422 1427 1431 1433 1436 1441 1445 1449 1453 1455 1455 1457 1460 1465 1469 1473 1481 1488 1492 1496 1500 1505 1510 1514 1519 1524 1528 1531 1535 1541 1545 1547 1549 1549 1550 1552 1553 1555 1557
1396 1401 1405 1412 1417 1424 1427 1430 1433 1437 1441 1445 1449 1452 1453 1456 1457 1461 1466 1470 1478 1484 1490 1494 1498 1502 1508 1512 1515 1519 1525 1528 1533 1536 1539 1543 1545 1545 1546 1546 1548 1550 1550
1390 1396 1403 1410 1416 1422 1424 1427 1429 1433 1437 1442 1445 1449 1452 1454 1456 1459 1463 1468 1476 1481 1487 1490 1497 1501 1503 1507 1511 1517 1523 1526 1530 1533 1534 1537 1539 1540 1542 1544 1545 1546 1548
1385 1393 1398 1405 1411 1415 1420 1424 1426 1429 1433 1438 1443 1446 1449 1451 1453 1456 1460 1466 1474 1478 1484 1488 1492 1497 1501 1505 1512 1516 1519 1522 1525 1527 1527 1532 1535 1537 1539 1540 1541 1541 1543
1378 1385 1393 1400 1406 1411 1417 1420 1423 1425 1429 1433 1439 1444 1447 1449 1452 1456 1460 1464 1469 1473 1480 1485 1489 1492 1496 1502 1507 1512 1514 1517 1519 1521 1524 1526 1529 1531 1533 1534 1536 1535 1535
1375 1382 1391 1398 1403 1408 1411 1415 1419 1423 1425 1429 1433 1439 1444 1448 1450 1455 1459 1464 1468 1472 1476 1480 1485 1490 1494 1497 1501 1504 1506 1510 1513 1514 1517 1519 1522 1524 1526 1528 1528 1529 1526
1375 1383 1389 1396 1401 1405 1410 1414 1418 1421 1424 1427 1430 1434 1439 1446 1450 1454 1457 1461 1464 1468 1472 1476 1480 1484 1488 1491 1495 1497 1500 1503 1505 1507 1510 1512 1514 1516 1518 1519 1520 1520 1520
1383 1387 1392 1398 1403 1406 1409 1412 1416 1420 1423 1425 1427 1430 1435 1440 1445 1449 1452 1455 1459 1463 1466 1470 1474 1477 1481 1484 1487 1489 1493 1494 1497 1499 1500 1502 1505 1507 1509 1511 1512 1511 1511
1387 1390 1397 1403 1408 1410 1414 1418 1421 1421 1422 1424 1425 1427 1430 1434 1437 1441 1445 1450 1452 1455 1460 1464 1467 1470 1473 1476 1479 1481 1484 1486 1487 1490 1492 1491 1497 1497 1499 1500 1501 1501 1502
1397 1399 1400 1406 1409 1412 1415 1419 1423 1426 1427 1429 1428 1428 1429 1430 1431 1433 1438 1441 1445 1449 1452 1455 1458 1461 1463 1466 1469 1472 1474 1476 1477 1480 1481 1481 1487 1486 1488 1489 1490 1490 1491
1406 1408 1406 1409 1412 1414 1417 1420 1422 1424 1422 1423 1425 1426 1426 1427 1428 1430 1431 1433 1436 1439 1442 1444 1447 1450 1453 1454 1457 1460 1462 1464 1465 1468 1469 1470 1473 1473 1475 1478 1479 1480 1480
1406 1412 1413 1415 1415 1417 1419 1420 1420 1420 1417 1418 1419 1421 1425 1426 1427 1428 1429 1429 1429 1430 1433 1435 1436 1439 1441 1442 1444 1447 1450 1452 1453 1455 1456 1456 1458 1461 1464 1466 1467 1468 1467
1405 1415 1421 1419 1418 1416 1418 1419 1418 1418 1418 1418 1417 1417 1418 1419 1420 1421 1423 1425 1424 1424 1424 1424 1425 1427 1426 1428 1432 1436 1438 1440 1442 1441 1442 1444 1447 1448 1450 1453 1456 1459 1456
1416 1419 1420 1419 1417 1417 1421 1418 1416 1416 1416 1415 1414 1413 1413 1412 1413 1413 1415 1414 1415 1418 1416 1416 1415 1415 1415 1416 1419 1424 1427 1428 1428 1429 1431 1432 1432 1434 1437 1440 1443 1444 1442
1413 1417 1422 1421 1418 1419 1420 1417 1415 1414 1413 1412 1411 1410 1408 1407 1406 1406 1406 1407 1405 1406 1406 1406 1405 1406 1405 1404 1404 1408 1413 1414 1414 1415 1417 1418 1419 1420 1423 1426 1427 1428 1427
1419 1421 1422 1420 1419 1420 1418 1416 1415 1413 1412 1409 1407 1405 1403 1402 1400 1399 1398 1399 1396 1394 1392 1390 1392 1393 1393 1394 1397 1399 1401 1401 1402 1404 1404 1404 1405 1408 1411 1413 1412 1412 1411
1421 1421 1420 1421 1422 1418 1415 1414 1411 1410 1408 1407 1405 1401 1398 1395 1392 1391 1390 1388 1386 1384 1383 1381 1381 1381 1379 1382 1384 1387 1389 1388 1389 1390 1391 1391 1393 1394 1396 1397 1398 1397 1396
1419 1421 1421 1419 1417 1414 1412 1409 1408 1406 1406 1405 1402 1398 1395 1391 1387 1383 1380 1378 1376 1374 1372 1372 1371 1371 1370 1369 1369 1373 1375 1374 1375 1376 1376 1377 1376 1378 1380 1381 1382 1381 1379
1422 1422 1421 1418 1415 1412 1410 1408 1406 1405 1403 1401 1398 1395 1392 1387 1382 1378 1375 1372 1369 1366 1362 1361 1361 1359 1358 1357 1357 1360 1363 1363 1362 1363 1361 1361 1361 1363 1368 1369 1367 1368 1373
1425 1422 1421 1418 1415 1412 1409 1407 1406 1404 1402 1399 1395 1392 1389 1385 1381 1376 1372 1369 1365 1362 1358 1355 1354 1354 1353 1350 1347 1349 1350 1350 1352 1352 1360 1352 1348 1349 1356 1365 1369 1387 1371
1420 1418 1418 1416 1413 1411 1409 1407 1405 1404 1402 1398 1395 1393 1389 1386 1382 1377 1372 1369 1366 1362 1359 1357 1355 1356 1355 1355 1349 1349 1349 1343 1348 1350 1361 1355 1352 1376 1359 1371 1376 1377 1385
1418 1417 1416 1415 1414 1412 1410 1408 1406 1404 1402 1400 1398 1396 1393 1390 1386 1382 1378 1377 1374 1370 1366 1363 1363 1362 1360 1362 1359 1355 1356 1358 1353 1356 1364 1369 1361 1366 1379 1369 1379 1385 1385
1421 1419 1418 1417 1415 1414 1411 1409 1407 1406 1405 1403 1401 1399 1397 1394 1391 1388 1386 1384 1383 1380 1377 1373 1369 1371 1373 1372 1369 1368 1371 1359 1370 1368 1366 1375 1374 1377 1384 1387 1383 1386 1382